OK2MK-6 Weather Reports


Display with metric or nautical units.
time (UTC)temp
F
wind
direction
speed
MPH
gust
MPH
rain 1hr
in
rain 24hr
in
rain mn
in
humidity
%
barometer
mb
20260502181020 0 180 0.0 2.0 0.00 0.00 0.00 1015.3
20260502163715 0 338 2.0 7.0 0.00 0.00 0.00 1014.5
20260502162538 0 135 2.0 6.0 0.00 0.00 0.00 1014.7
20260502161358 0 90 2.0 6.0 0.00 0.00 0.00 1015.0
20260502160220 0 225 4.0 6.0 0.00 0.00 0.00 1015.2
20260502151523 0 225 2.0 9.0 0.00 0.00 0.00 1015.7
20260502150345 0 293 4.0 6.0 0.00 0.00 0.00 1015.9
20260502130721 0 0 1.0 8.0 0.00 0.00 0.00 1017.1
20260502123227 0 270 3.0 7.0 0.00 0.00 0.00 1017.7
20260502122049 0 135 3.0 7.0 0.00 0.00 0.00 1017.8
20260502120911 0 158 3.0 8.0 0.00 0.00 0.00 1018.0
20260502115733 0 158 1.0 6.0 0.00 0.00 0.00 1018.1
20260502114555 0 225 1.0 10.0 0.00 0.00 0.00 1018.3
20260502113416 0 338 3.0 7.0 0.00 0.00 0.00 1018.6
20260502112237 0 338 5.0 8.0 0.00 0.00 0.00 1018.6
20260502111100 0 225 3.0 14.0 0.00 0.00 0.00 1018.7
20260502105921 0 248 1.0 9.0 0.00 0.00 0.00 1019.0
20260502104743 0 270 3.0 5.0 0.00 0.00 0.00 1019.2
20260502103606 0 158 1.0 9.0 0.00 0.00 0.00 1019.4
20260502102424 0 158 6.0 9.0 0.00 0.00 0.00 1019.5
20260502101247 0 315 2.0 10.0 0.00 0.00 0.00 1019.6
20260502100109 0 270 4.0 7.0 0.00 0.00 0.00 1019.7
20260502091435 0 270 1.0 7.0 0.00 0.00 0.00 1020.7
20260502090257 0 315 4.0 8.0 0.00 0.00 0.00 1020.8
20260502070630 0 315 1.0 5.0 0.00 0.00 0.00 1021.6
20260502065451 0 315 1.0 3.0 0.00 0.00 0.00 1021.8
20260502064313 0 135 0.0 2.0 0.00 0.00 0.00 1022.0
20260502063135 0 293 1.0 1.0 0.00 0.00 0.00 1022.3
20260502061953 0 270 0.0 1.0 0.00 0.00 0.00 1022.7
20260502060811 0 270 1.0 2.0 0.00 0.00 0.00 1023.0
20260502055627 0 270 2.0 3.0 0.00 0.00 0.00 1023.3
20260502054445 0 293 2.0 4.0 0.00 0.00 0.00 1023.5
20260502053303 0 270 0.0 4.0 0.00 0.00 0.00 1023.7
20260502052123 0 315 1.0 3.0 0.00 0.00 0.00 1024.0
20260502050936 0 270 1.0 2.0 0.00 0.00 0.00 1024.1
20260502045752 0 270 1.0 2.0 0.00 0.00 0.00 1024.2
20260502044611 0 270 1.0 4.0 0.00 0.00 0.00 1024.5
20260502043431 0 0 3.0 4.0 0.00 0.00 0.00 1024.5
20260502042250 0 270 2.0 3.0 0.00 0.00 0.00 1024.7
20260502041109 0 270 3.0 4.0 0.00 0.00 0.00 1024.7
20260502035926 0 90 2.0 3.0 0.00 0.00 0.00 1024.5
20260502034745 0 293 2.0 2.0 0.00 0.00 0.00 1024.6
20260502033603 0 270 2.0 2.0 0.00 0.00 0.00 1024.5
20260502032419 0 293 0.0 2.0 0.00 0.00 0.00 1024.5
20260502031239 0 270 0.0 2.0 0.00 0.00 0.00 1024.5
20260502030058 0 270 1.0 3.0 0.00 0.00 0.00 1024.6
20260502024916 0 270 2.0 4.0 0.00 0.00 0.00 1024.7
20260502023736 0 293 2.0 4.0 0.00 0.00 0.00 1024.7
20260502022556 0 293 2.0 2.0 0.00 0.00 0.00 1024.6
20260502021414 0 293 1.0 2.0 0.00 0.00 0.00 1024.6
20260502020234 0 270 1.0 4.0 0.00 0.00 0.00 1024.5
20260502015053 0 90 2.0 2.0 0.00 0.00 0.00 1024.6
20260502013913 0 270 0.0 2.0 0.00 0.00 0.00 1024.7
20260502012732 0 270 0.0 2.0 0.00 0.00 0.00 1024.7
20260502011550 0 270 1.0 2.0 0.00 0.00 0.00 1024.8
20260502010409 0 270 0.0 2.0 0.00 0.00 0.00 1024.7
20260502005230 0 293 0.0 2.0 0.00 0.00 0.00 1024.7
20260502004048 0 315 1.0 2.0 0.00 0.00 0.00 1024.7
20260502002906 0 315 1.0 3.0 0.00 0.00 0.00 1024.7
20260502001725 0 90 2.0 3.0 0.00 0.00 0.00 1024.7
20260502000544 0 158 3.0 5.0 0.00 0.00 0.00 1024.7
20260501235404 0 45 1.0 3.0 0.00 0.00 0.00 1024.7
20260501234223 0 293 3.0 3.0 0.00 0.00 0.00 1024.7
20260501233043 0 293 2.0 2.0 0.00 0.00 0.00 1024.6
20260501231903 0 293 1.0 2.0 0.00 0.00 0.00 1024.7
20260501230723 0 45 1.0 3.0 0.00 0.00 0.00 1024.8
20260501225543 0 90 2.0 3.0 0.00 0.00 0.00 1024.8
20260501224404 0 90 1.0 3.0 0.00 0.00 0.00 1024.8
20260501223220 0 45 3.0 3.0 0.00 0.00 0.00 1024.8
20260501220854 0 158 1.0 3.0 0.00 0.00 0.00 1024.7
20260501215712 0 90 2.0 3.0 0.00 0.00 0.00 1024.7
20260501214530 0 45 1.0 3.0 0.00 0.00 0.00 1024.6
20260501213348 0 293 1.0 2.0 0.00 0.00 0.00 1024.6
20260501212206 0 293 0.0 0.0 0.00 0.00 0.00 1024.6
20260501211024 0 293 0.0 2.0 0.00 0.00 0.00 1024.3
20260501205842 0 293 1.0 3.0 0.00 0.00 0.00 1024.2
20260501204700 0 293 2.0 2.0 0.00 0.00 0.00 1024.3
20260501203518 0 293 0.0 1.0 0.00 0.00 0.00 1024.2
20260501202335 0 293 0.0 2.0 0.00 0.00 0.00 1024.0
20260501201150 0 315 1.0 2.0 0.00 0.00 0.00 1023.9
20260501200008 0 293 0.0 1.0 0.00 0.00 0.00 1023.6
20260501194813 0 315 1.0 4.0 0.00 0.00 0.00 1023.6
20260501193632 0 90 4.0 5.0 0.00 0.00 0.00 1023.3
20260501192450 0 158 3.0 4.0 0.00 0.00 0.00 1023.2
20260501191307 0 293 3.0 4.0 0.00 0.00 0.00 1023.1
20260501190123 0 293 2.0 4.0 0.00 0.00 0.00 1022.9
20260501184940 0 90 3.0 4.0 0.00 0.00 0.00 1022.6
20260501183800 0 90 2.0 3.0 0.00 0.00 0.00 1022.4
20260501182621 0 293 3.0 3.0 0.00 0.00 0.00 1022.3